Time,TemperatureF,DewpointF,PressureIn,WindDirection,WindDirectionDegrees,WindSpeedMPH,WindSpeedGustMPH,Humidity,HourlyPrecipIn,Conditions,Clouds,dailyrainin,SoftwareType,DateUTC
2013-08-06 00:01:00,52.6,46.6,30.05,ENE,68,0.0,0.0,80,0.00,,,0.00,Wunderground v.1.15,2013-08-06 04:01:00,
2013-08-06 00:02:00,52.6,46.6,30.05,ENE,68,0.0,0.0,80,0.00,,,0.00,Wunderground v.1.15,2013-08-06 04:02:00,
2013-08-06 00:03:00,52.6,46.6,30.05,ENE,68,0.0,0.0,80,0.00,,,0.00,Wunderground v.1.15,2013-08-06 04:03:00,
2013-08-06 00:05:00,52.5,46.5,30.05,ENE,68,0.0,0.0,80,0.00,,,0.00,Wunderground v.1.15,2013-08-06 04:05:00,
2013-08-06 00:08:00,52.4,46.4,30.05,ENE,68,0.0,0.0,80,0.00,,,0.00,Wunderground v.1.15,2013-08-06 04:08:00,
2013-08-06 00:13:00,52.3,46.3,30.05,ENE,68,0.0,0.0,80,0.00,,,0.00,Wunderground v.1.15,2013-08-06 04:13:00,
2013-08-06 00:19:00,52.2,46.5,30.05,ENE,68,0.0,0.0,81,0.00,,,0.00,Wunderground v.1.15,2013-08-06 04:19:00,
2013-08-06 00:24:00,52.2,46.2,30.05,ENE,68,0.0,0.0,80,0.00,,,0.00,Wunderground v.1.15,2013-08-06 04:24:00,
2013-08-06 00:29:00,52.2,46.2,30.05,ENE,68,0.0,0.0,80,0.00,,,0.00,Wunderground v.1.15,2013-08-06 04:29:00,
2013-08-06 00:35:00,52.1,46.4,30.05,ENE,68,0.0,0.0,81,0.00,,,0.00,Wunderground v.1.15,2013-08-06 04:35:00,
2013-08-06 00:40:00,52.0,46.3,30.05,ENE,68,0.0,0.0,81,0.00,,,0.00,Wunderground v.1.15,2013-08-06 04:40:00,
2013-08-06 00:46:00,51.8,46.5,30.05,ENE,68,0.0,0.0,82,0.00,,,0.00,Wunderground v.1.15,2013-08-06 04:46:00,
2013-08-06 00:51:00,51.7,46.4,30.05,ENE,68,0.0,0.0,82,0.00,,,0.00,Wunderground v.1.15,2013-08-06 04:51:00,
2013-08-06 00:57:00,51.6,46.6,30.05,ENE,68,0.0,0.0,83,0.00,,,0.00,Wunderground v.1.15,2013-08-06 04:57:00,
2013-08-06 01:03:00,51.8,46.8,30.05,ENE,68,0.0,0.0,83,0.00,,,0.00,Wunderground v.1.15,2013-08-06 05:03:00,
2013-08-06 01:09:00,51.9,46.6,30.05,ENE,68,0.0,0.0,82,0.00,,,0.00,Wunderground v.1.15,2013-08-06 05:09:00,
2013-08-06 01:15:00,51.9,46.9,30.05,ENE,68,0.0,0.0,83,0.00,,,0.00,Wunderground v.1.15,2013-08-06 05:15:00,
2013-08-06 01:20:00,51.7,46.4,30.05,ENE,69,0.0,0.0,82,0.00,,,0.00,Wunderground v.1.15,2013-08-06 05:20:00,
2013-08-06 01:26:00,51.5,46.5,30.05,ENE,68,0.0,0.0,83,0.00,,,0.00,Wunderground v.1.15,2013-08-06 05:26:00,
2013-08-06 01:32:00,51.4,46.4,30.05,ENE,68,0.0,0.0,83,0.00,,,0.00,Wunderground v.1.15,2013-08-06 05:32:00,
2013-08-06 01:37:00,51.2,46.2,30.05,ENE,68,0.0,0.0,83,0.00,,,0.00,Wunderground v.1.15,2013-08-06 05:37:00,
2013-08-06 01:43:00,50.8,46.1,30.05,ENE,68,0.0,0.0,84,0.00,,,0.00,Wunderground v.1.15,2013-08-06 05:43:00,
2013-08-06 01:49:00,50.5,46.2,30.05,ENE,70,0.0,0.0,85,0.00,,,0.00,Wunderground v.1.15,2013-08-06 05:49:00,
2013-08-06 01:55:00,50.4,46.1,30.05,ENE,68,0.0,0.0,85,0.00,,,0.00,Wunderground v.1.15,2013-08-06 05:55:00,
2013-08-06 02:00:00,50.3,46.0,30.05,ENE,68,0.0,0.0,85,0.00,,,0.00,Wunderground v.1.15,2013-08-06 06:00:00,
2013-08-06 02:05:00,50.2,45.9,30.05,ENE,68,0.0,0.0,85,0.00,,,0.00,Wunderground v.1.15,2013-08-06 06:05:00,
2013-08-06 02:10:00,49.9,45.9,30.05,ENE,68,0.0,0.0,86,0.00,,,0.00,Wunderground v.1.15,2013-08-06 06:10:00,
2013-08-06 02:15:00,49.8,45.8,30.05,ENE,68,0.0,1.0,86,0.00,,,0.00,Wunderground v.1.15,2013-08-06 06:15:00,
2013-08-06 02:20:00,49.8,45.8,30.05,ENE,69,0.0,0.0,86,0.00,,,0.00,Wunderground v.1.15,2013-08-06 06:20:00,
2013-08-06 02:25:00,49.6,45.6,30.05,ENE,69,0.0,0.0,86,0.00,,,0.00,Wunderground v.1.15,2013-08-06 06:25:00,
2013-08-06 02:30:00,49.4,45.7,30.05,ENE,70,0.0,0.0,87,0.00,,,0.00,Wunderground v.1.15,2013-08-06 06:30:00,
2013-08-06 02:35:00,49.2,45.5,30.05,ENE,69,0.0,0.0,87,0.00,,,0.00,Wunderground v.1.15,2013-08-06 06:35:00,
2013-08-06 02:40:00,49.0,45.6,30.05,ENE,70,0.0,0.0,88,0.00,,,0.00,Wunderground v.1.15,2013-08-06 06:40:00,
2013-08-06 02:45:00,48.9,45.5,30.05,ENE,70,0.0,0.0,88,0.00,,,0.00,Wunderground v.1.15,2013-08-06 06:45:00,
2013-08-06 02:50:00,48.9,45.5,30.05,ENE,69,0.0,0.0,88,0.00,,,0.00,Wunderground v.1.15,2013-08-06 06:50:00,
2013-08-06 02:55:00,48.9,45.5,30.06,ENE,69,0.0,0.0,88,0.00,,,0.00,Wunderground v.1.15,2013-08-06 06:55:00,
2013-08-06 03:00:00,48.7,45.3,30.06,ENE,69,0.0,0.0,88,0.00,,,0.00,Wunderground v.1.15,2013-08-06 07:00:00,
2013-08-06 03:05:00,48.8,45.4,30.06,ENE,68,0.0,0.0,88,0.00,,,0.00,Wunderground v.1.15,2013-08-06 07:05:00,
2013-08-06 03:10:00,48.9,45.5,30.06,ENE,70,0.0,0.0,88,0.00,,,0.00,Wunderground v.1.15,2013-08-06 07:10:00,
2013-08-06 03:15:00,48.8,45.4,30.06,ENE,69,0.0,0.0,88,0.00,,,0.00,Wunderground v.1.15,2013-08-06 07:15:00,
2013-08-06 03:20:00,48.7,45.3,30.06,ENE,70,0.0,0.0,88,0.00,,,0.00,Wunderground v.1.15,2013-08-06 07:20:00,
2013-08-06 03:25:00,48.7,45.6,30.06,ENE,65,0.0,1.0,89,0.00,,,0.00,Wunderground v.1.15,2013-08-06 07:25:00,
2013-08-06 03:30:00,48.7,45.3,30.06,ENE,65,0.0,0.0,88,0.00,,,0.00,Wunderground v.1.15,2013-08-06 07:30:00,
2013-08-06 03:35:00,48.7,45.3,30.06,ENE,65,0.0,0.0,88,0.00,,,0.00,Wunderground v.1.15,2013-08-06 07:35:00,
2013-08-06 03:40:00,48.7,45.6,30.06,ENE,65,0.0,0.0,89,0.00,,,0.00,Wunderground v.1.15,2013-08-06 07:40:00,
2013-08-06 03:45:00,48.7,45.6,30.06,ENE,67,0.0,0.0,89,0.00,,,0.00,Wunderground v.1.15,2013-08-06 07:45:00,
2013-08-06 03:51:00,48.7,45.6,30.07,ENE,67,0.0,0.0,89,0.00,,,0.00,Wunderground v.1.15,2013-08-06 07:51:00,
2013-08-06 03:56:00,48.5,45.4,30.07,ENE,67,0.0,0.0,89,0.00,,,0.00,Wunderground v.1.15,2013-08-06 07:56:00,
2013-08-06 04:01:00,48.6,45.5,30.07,ENE,67,0.0,0.0,89,0.00,,,0.00,Wunderground v.1.15,2013-08-06 08:01:00,
2013-08-06 04:06:00,48.6,45.5,30.07,ENE,67,0.0,0.0,89,0.00,,,0.00,Wunderground v.1.15,2013-08-06 08:06:00,
2013-08-06 04:11:00,48.6,45.5,30.06,ENE,67,0.0,0.0,89,0.00,,,0.00,Wunderground v.1.15,2013-08-06 08:11:00,
2013-08-06 04:16:00,48.6,45.5,30.07,ENE,67,0.0,0.0,89,0.00,,,0.00,Wunderground v.1.15,2013-08-06 08:16:00,
2013-08-06 04:21:00,48.5,45.4,30.07,ENE,67,0.0,0.0,89,0.00,,,0.00,Wunderground v.1.15,2013-08-06 08:21:00,
2013-08-06 04:26:00,48.4,45.3,30.07,ENE,67,0.0,0.0,89,0.00,,,0.00,Wunderground v.1.15,2013-08-06 08:26:00,
2013-08-06 04:31:00,48.3,45.2,30.07,ENE,67,0.0,0.0,89,0.00,,,0.00,Wunderground v.1.15,2013-08-06 08:31:00,
2013-08-06 04:36:00,48.3,45.5,30.07,ENE,67,0.0,0.0,90,0.00,,,0.00,Wunderground v.1.15,2013-08-06 08:36:00,
2013-08-06 04:41:00,48.2,45.1,30.07,ENE,67,0.0,0.0,89,0.00,,,0.00,Wunderground v.1.15,2013-08-06 08:41:00,
2013-08-06 04:46:00,48.1,45.3,30.07,ENE,67,0.0,0.0,90,0.00,,,0.00,Wunderground v.1.15,2013-08-06 08:46:00,
2013-08-06 04:51:00,48.0,45.2,30.07,ENE,67,0.0,0.0,90,0.00,,,0.00,Wunderground v.1.15,2013-08-06 08:51:00,
2013-08-06 04:56:00,47.9,45.1,30.07,ENE,67,0.0,0.0,90,0.00,,,0.00,Wunderground v.1.15,2013-08-06 08:56:00,
2013-08-06 05:01:00,48.0,45.2,30.07,ENE,67,0.0,0.0,90,0.00,,,0.00,Wunderground v.1.15,2013-08-06 09:01:00,
2013-08-06 05:06:00,48.0,45.2,30.07,ENE,67,0.0,0.0,90,0.00,,,0.00,Wunderground v.1.15,2013-08-06 09:06:00,
2013-08-06 05:11:00,47.9,45.1,30.07,ENE,67,0.0,0.0,90,0.00,,,0.00,Wunderground v.1.15,2013-08-06 09:11:00,
2013-08-06 05:16:00,47.8,45.0,30.08,ENE,67,0.0,0.0,90,0.00,,,0.00,Wunderground v.1.15,2013-08-06 09:16:00,
2013-08-06 05:21:00,47.8,45.3,30.07,ENE,67,0.0,0.0,91,0.00,,,0.00,Wunderground v.1.15,2013-08-06 09:21:00,
2013-08-06 05:26:00,47.8,45.0,30.08,ENE,67,0.0,0.0,90,0.00,,,0.00,Wunderground v.1.15,2013-08-06 09:26:00,
2013-08-06 05:31:00,47.7,44.9,30.08,ENE,67,0.0,0.0,90,0.00,,,0.00,Wunderground v.1.15,2013-08-06 09:31:00,
2013-08-06 05:36:00,47.6,45.1,30.08,ENE,67,0.0,0.0,91,0.00,,,0.00,Wunderground v.1.15,2013-08-06 09:36:00,
2013-08-06 05:41:00,47.8,45.0,30.08,ENE,67,0.0,0.0,90,0.00,,,0.00,Wunderground v.1.15,2013-08-06 09:41:00,
2013-08-06 05:46:00,47.7,44.9,30.08,ENE,67,0.0,0.0,90,0.00,,,0.00,Wunderground v.1.15,2013-08-06 09:46:00,
2013-08-06 05:51:00,47.6,44.8,30.08,ENE,66,0.0,0.0,90,0.00,,,0.00,Wunderground v.1.15,2013-08-06 09:51:00,
2013-08-06 05:56:00,47.7,44.9,30.09,ENE,67,0.0,0.0,90,0.00,,,0.00,Wunderground v.1.15,2013-08-06 09:56:00,
2013-08-06 06:01:00,47.7,44.6,30.09,ENE,67,0.0,0.0,89,0.00,,,0.00,Wunderground v.1.15,2013-08-06 10:01:00,
2013-08-06 06:06:00,47.6,44.8,30.09,ENE,67,0.0,0.0,90,0.00,,,0.00,Wunderground v.1.15,2013-08-06 10:06:00,
2013-08-06 06:11:00,47.6,44.8,30.09,ENE,66,0.0,0.0,90,0.00,,,0.00,Wunderground v.1.15,2013-08-06 10:11:00,
2013-08-06 06:16:00,47.7,44.9,30.09,ENE,65,0.0,0.0,90,0.00,,,0.00,Wunderground v.1.15,2013-08-06 10:16:00,
2013-08-06 06:21:00,47.7,44.9,30.09,ENE,65,0.0,0.0,90,0.00,,,0.00,Wunderground v.1.15,2013-08-06 10:21:00,
2013-08-06 06:26:00,47.8,45.0,30.10,ENE,67,0.0,0.0,90,0.00,,,0.00,Wunderground v.1.15,2013-08-06 10:26:00,
2013-08-06 06:31:00,47.8,45.3,30.10,ENE,67,0.0,0.0,91,0.00,,,0.00,Wunderground v.1.15,2013-08-06 10:31:00,
2013-08-06 06:36:00,48.1,45.6,30.10,ENE,67,0.0,0.0,91,0.00,,,0.00,Wunderground v.1.15,2013-08-06 10:36:00,
2013-08-06 06:41:00,48.2,45.7,30.10,ENE,67,0.0,0.0,91,0.00,,,0.00,Wunderground v.1.15,2013-08-06 10:41:00,
2013-08-06 06:46:00,48.3,45.8,30.10,ENE,67,0.0,0.0,91,0.00,,,0.00,Wunderground v.1.15,2013-08-06 10:46:00,
2013-08-06 06:51:00,48.4,45.6,30.10,ENE,67,0.0,0.0,90,0.00,,,0.00,Wunderground v.1.15,2013-08-06 10:51:00,
2013-08-06 06:56:00,48.5,45.7,30.10,ENE,66,0.0,0.0,90,0.00,,,0.00,Wunderground v.1.15,2013-08-06 10:56:00,
2013-08-06 07:01:00,48.6,46.1,30.11,ENE,67,0.0,0.0,91,0.00,,,0.00,Wunderground v.1.15,2013-08-06 11:01:00,
2013-08-06 07:06:00,48.8,46.0,30.11,ENE,67,0.0,0.0,90,0.00,,,0.00,Wunderground v.1.15,2013-08-06 11:06:00,
2013-08-06 07:11:00,48.9,46.4,30.11,ENE,67,0.0,0.0,91,0.00,,,0.00,Wunderground v.1.15,2013-08-06 11:11:00,
2013-08-06 07:16:00,49.1,46.6,30.11,ENE,66,0.0,0.0,91,0.00,,,0.00,Wunderground v.1.15,2013-08-06 11:16:00,
2013-08-06 07:21:00,49.5,47.0,30.11,ENE,67,0.0,0.0,91,0.00,,,0.00,Wunderground v.1.15,2013-08-06 11:21:00,
2013-08-06 07:26:00,50.2,47.7,30.11,ENE,67,0.0,0.0,91,0.00,,,0.00,Wunderground v.1.15,2013-08-06 11:26:00,
2013-08-06 07:31:00,50.6,48.1,30.11,ENE,67,0.0,0.0,91,0.00,,,0.00,Wunderground v.1.15,2013-08-06 11:31:00,
2013-08-06 07:36:00,51.2,48.7,30.11,ENE,67,0.0,0.0,91,0.00,,,0.00,Wunderground v.1.15,2013-08-06 11:36:00,
2013-08-06 07:41:00,51.8,49.0,30.11,ENE,67,0.0,0.0,90,0.00,,,0.00,Wunderground v.1.15,2013-08-06 11:41:00,
2013-08-06 07:46:00,52.2,49.1,30.11,ENE,67,0.0,0.0,89,0.00,,,0.00,Wunderground v.1.15,2013-08-06 11:46:00,
2013-08-06 07:52:00,52.8,49.3,30.12,ENE,67,0.0,0.0,88,0.00,,,0.00,Wunderground v.1.15,2013-08-06 11:52:00,
2013-08-06 07:56:00,53.5,49.7,30.11,ENE,66,0.0,0.0,87,0.00,,,0.00,Wunderground v.1.15,2013-08-06 11:56:00,
2013-08-06 08:01:00,54.0,49.6,30.11,ENE,67,0.0,0.0,85,0.00,,,0.00,Wunderground v.1.15,2013-08-06 12:01:00,
2013-08-06 08:06:00,54.4,50.0,30.11,ENE,67,0.0,0.0,85,0.00,,,0.00,Wunderground v.1.15,2013-08-06 12:06:00,
2013-08-06 08:12:00,54.9,50.5,30.12,ENE,67,0.0,0.0,85,0.00,,,0.00,Wunderground v.1.15,2013-08-06 12:12:00,
2013-08-06 08:17:00,55.4,50.3,30.11,ENE,67,0.0,0.0,83,0.00,,,0.00,Wunderground v.1.15,2013-08-06 12:17:00,
2013-08-06 08:22:00,56.1,50.7,30.11,ENE,67,0.0,0.0,82,0.00,,,0.00,Wunderground v.1.15,2013-08-06 12:22:00,
2013-08-06 08:26:00,56.9,51.1,30.11,ENE,67,0.0,0.0,81,0.00,,,0.00,Wunderground v.1.15,2013-08-06 12:26:00,
2013-08-06 08:32:00,57.7,51.9,30.11,ENE,67,0.0,0.0,81,0.00,,,0.00,Wunderground v.1.15,2013-08-06 12:32:00,
2013-08-06 08:37:00,58.1,52.3,30.12,ENE,67,0.0,0.0,81,0.00,,,0.00,Wunderground v.1.15,2013-08-06 12:37:00,
2013-08-06 08:42:00,58.5,51.7,30.12,ENE,67,0.0,0.0,78,0.00,,,0.00,Wunderground v.1.15,2013-08-06 12:42:00,
2013-08-06 08:47:00,59.3,51.7,30.12,ENE,67,0.0,0.0,76,0.00,,,0.00,Wunderground v.1.15,2013-08-06 12:47:00,
2013-08-06 08:52:00,60.0,51.7,30.12,ENE,71,0.0,0.0,74,0.00,,,0.00,Wunderground v.1.15,2013-08-06 12:52:00,
2013-08-06 08:57:00,60.7,52.0,30.12,ENE,71,0.0,0.0,73,0.00,,,0.00,Wunderground v.1.15,2013-08-06 12:57:00,
2013-08-06 09:02:00,61.3,52.2,30.12,ENE,71,0.0,0.0,72,0.00,,,0.00,Wunderground v.1.15,2013-08-06 13:02:00,
2013-08-06 09:07:00,61.9,52.0,30.12,SSW,211,0.0,1.0,70,0.00,,,0.00,Wunderground v.1.15,2013-08-06 13:07:00,
2013-08-06 09:12:00,62.7,52.0,30.12,SSW,211,0.0,0.0,68,0.00,,,0.00,Wunderground v.1.15,2013-08-06 13:12:00,
2013-08-06 09:17:00,63.2,50.8,30.12,SSW,211,0.0,0.0,64,0.00,,,0.00,Wunderground v.1.15,2013-08-06 13:17:00,
2013-08-06 09:22:00,64.0,50.3,30.12,SSW,211,0.0,0.0,61,0.00,,,0.00,Wunderground v.1.15,2013-08-06 13:22:00,
2013-08-06 09:27:00,64.8,51.0,30.12,SSW,211,0.0,1.0,61,0.00,,,0.00,Wunderground v.1.15,2013-08-06 13:27:00,
2013-08-06 09:32:00,65.7,50.0,30.12,SSW,212,0.0,1.0,57,0.00,,,0.00,Wunderground v.1.15,2013-08-06 13:32:00,
2013-08-06 09:37:00,66.1,49.5,30.12,SE,139,0.0,1.0,55,0.00,,,0.00,Wunderground v.1.15,2013-08-06 13:37:00,
2013-08-06 09:42:00,66.5,49.8,30.12,South,177,0.0,0.0,55,0.00,,,0.00,Wunderground v.1.15,2013-08-06 13:42:00,
2013-08-06 09:47:00,67.4,49.7,30.13,South,172,0.0,0.0,53,0.00,,,0.00,Wunderground v.1.15,2013-08-06 13:47:00,
2013-08-06 09:52:00,67.8,50.0,30.13,South,173,0.0,0.0,53,0.00,,,0.00,Wunderground v.1.15,2013-08-06 13:52:00,
2013-08-06 09:57:00,67.5,49.8,30.13,NNE,18,1.0,1.0,53,0.00,,,0.00,Wunderground v.1.15,2013-08-06 13:57:00,
2013-08-06 10:02:00,67.8,50.0,30.13,SSE,149,0.0,0.0,53,0.00,,,0.00,Wunderground v.1.15,2013-08-06 14:02:00,
2013-08-06 10:07:00,68.7,51.9,30.13,SW,227,0.0,2.0,55,0.00,,,0.00,Wunderground v.1.15,2013-08-06 14:07:00,
2013-08-06 10:12:00,69.9,52.0,30.13,SW,219,0.0,1.0,53,0.00,,,0.00,Wunderground v.1.15,2013-08-06 14:12:00,
2013-08-06 10:17:00,70.0,48.8,30.13,NW,322,0.0,2.0,47,0.00,,,0.00,Wunderground v.1.15,2013-08-06 14:17:00,
2013-08-06 10:22:00,70.0,50.0,30.13,SW,216,0.0,1.0,49,0.00,,,0.00,Wunderground v.1.15,2013-08-06 14:22:00,
2013-08-06 10:27:00,70.2,50.1,30.13,South,169,0.0,1.0,49,0.00,,,0.00,Wunderground v.1.15,2013-08-06 14:27:00,
2013-08-06 10:32:00,70.9,50.2,30.12,SSW,208,0.0,1.0,48,0.00,,,0.00,Wunderground v.1.15,2013-08-06 14:32:00,
2013-08-06 10:37:00,71.9,48.2,30.12,SSW,195,0.0,1.0,43,0.00,,,0.00,Wunderground v.1.15,2013-08-06 14:37:00,
2013-08-06 10:42:00,72.3,48.5,30.12,WSW,250,0.0,1.0,43,0.00,,,0.00,Wunderground v.1.15,2013-08-06 14:42:00,
2013-08-06 10:47:00,72.3,48.5,30.12,WSW,240,0.0,1.0,43,0.00,,,0.00,Wunderground v.1.15,2013-08-06 14:47:00,
2013-08-06 10:52:00,72.6,47.5,30.12,SW,221,0.0,1.0,41,0.00,,,0.00,Wunderground v.1.15,2013-08-06 14:52:00,
2013-08-06 10:58:00,72.1,47.1,30.12,SW,221,0.0,1.0,41,0.00,,,0.00,Wunderground v.1.15,2013-08-06 14:58:00,
2013-08-06 11:03:00,71.7,49.2,30.12,SW,221,0.0,1.0,45,0.00,,,0.00,Wunderground v.1.15,2013-08-06 15:03:00,
2013-08-06 11:08:00,72.4,48.6,30.12,SW,221,0.0,1.0,43,0.00,,,0.00,Wunderground v.1.15,2013-08-06 15:08:00,
2013-08-06 11:13:00,73.2,49.4,30.12,SSW,203,0.0,1.0,43,0.00,,,0.00,Wunderground v.1.15,2013-08-06 15:13:00,
2013-08-06 11:18:00,73.7,49.2,30.12,NW,323,1.0,2.0,42,0.00,,,0.00,Wunderground v.1.15,2013-08-06 15:18:00,
2013-08-06 11:24:00,73.5,47.7,30.12,SSW,208,0.0,1.0,40,0.00,,,0.00,Wunderground v.1.15,2013-08-06 15:24:00,
2013-08-06 11:29:00,73.2,50.0,30.12,North,359,0.0,1.0,44,0.00,,,0.00,Wunderground v.1.15,2013-08-06 15:29:00,
2013-08-06 11:34:00,73.5,50.2,30.12,NNW,340,0.0,1.0,44,0.00,,,0.00,Wunderground v.1.15,2013-08-06 15:34:00,
2013-08-06 11:39:00,72.9,47.2,30.12,NNE,33,0.0,2.0,40,0.00,,,0.00,Wunderground v.1.15,2013-08-06 15:39:00,
2013-08-06 11:44:00,73.0,49.2,30.12,NNW,333,1.0,2.0,43,0.00,,,0.00,Wunderground v.1.15,2013-08-06 15:44:00,
2013-08-06 11:49:00,73.1,50.5,30.12,NE,38,1.0,1.0,45,0.00,,,0.00,Wunderground v.1.15,2013-08-06 15:49:00,
2013-08-06 11:54:00,73.5,49.0,30.12,SW,236,0.0,2.0,42,0.00,,,0.00,Wunderground v.1.15,2013-08-06 15:54:00,
2013-08-06 11:59:00,74.0,49.4,30.11,NNE,12,0.0,0.0,42,0.00,,,0.00,Wunderground v.1.15,2013-08-06 15:59:00,
2013-08-06 12:04:00,74.0,50.7,30.11,NNW,333,0.0,2.0,44,0.00,,,0.00,Wunderground v.1.15,2013-08-06 16:04:00,
2013-08-06 12:09:00,74.6,49.3,30.11,SE,134,1.0,1.0,41,0.00,,,0.00,Wunderground v.1.15,2013-08-06 16:09:00,
2013-08-06 12:14:00,75.1,49.1,30.11,NE,53,0.0,2.0,40,0.00,,,0.00,Wunderground v.1.15,2013-08-06 16:14:00,
2013-08-06 12:19:00,74.1,47.6,30.11,NE,39,2.0,2.0,39,0.00,,,0.00,Wunderground v.1.15,2013-08-06 16:19:00,
2013-08-06 12:24:00,73.5,48.4,30.11,West,276,0.0,3.0,41,0.00,,,0.00,Wunderground v.1.15,2013-08-06 16:24:00,
2013-08-06 12:29:00,73.8,48.6,30.11,NE,41,0.0,2.0,41,0.00,,,0.00,Wunderground v.1.15,2013-08-06 16:29:00,
2013-08-06 12:34:00,74.3,49.1,30.11,NW,311,0.0,2.0,41,0.00,,,0.00,Wunderground v.1.15,2013-08-06 16:34:00,
2013-08-06 12:39:00,74.6,50.6,30.11,SW,229,1.0,1.0,43,0.00,,,0.00,Wunderground v.1.15,2013-08-06 16:39:00,
2013-08-06 12:44:00,75.6,50.9,30.12,WNW,298,1.0,2.0,42,0.00,,,0.00,Wunderground v.1.15,2013-08-06 16:44:00,
2013-08-06 12:49:00,75.9,49.2,30.12,ENE,61,1.0,1.0,39,0.00,,,0.00,Wunderground v.1.15,2013-08-06 16:49:00,
2013-08-06 12:54:00,75.8,49.1,30.12,ENE,57,2.0,2.0,39,0.00,,,0.00,Wunderground v.1.15,2013-08-06 16:54:00,
2013-08-06 12:59:00,75.1,48.4,30.12,NE,47,1.0,2.0,39,0.00,,,0.00,Wunderground v.1.15,2013-08-06 16:59:00,
2013-08-06 13:04:00,75.4,49.4,30.12,WNW,287,1.0,3.0,40,0.00,,,0.00,Wunderground v.1.15,2013-08-06 17:04:00,
2013-08-06 13:09:00,76.6,48.4,30.12,ESE,122,2.0,3.0,37,0.00,,,0.00,Wunderground v.1.15,2013-08-06 17:09:00,
2013-08-06 13:14:00,77.1,50.2,30.12,SW,224,0.0,3.0,39,0.00,,,0.00,Wunderground v.1.15,2013-08-06 17:14:00,
2013-08-06 13:19:00,77.0,50.1,30.12,ENE,61,0.0,1.0,39,0.00,,,0.00,Wunderground v.1.15,2013-08-06 17:19:00,
2013-08-06 13:24:00,77.5,51.3,30.12,WNW,296,0.0,1.0,40,0.00,,,0.00,Wunderground v.1.15,2013-08-06 17:24:00,
2013-08-06 13:27:00,77.9,49.5,30.12,NNE,27,1.0,1.0,37,0.00,,,0.00,Wunderground v.1.15,2013-08-06 17:27:00,
2013-08-06 13:32:00,78.3,50.6,30.12,West,265,1.0,1.0,38,0.00,,,0.00,Wunderground v.1.15,2013-08-06 17:32:00,
2013-08-06 13:37:00,78.2,47.5,30.12,NW,306,0.0,2.0,34,0.00,,,0.00,Wunderground v.1.15,2013-08-06 17:37:00,
2013-08-06 13:42:00,77.6,47.0,30.11,SW,222,0.0,2.0,34,0.00,,,0.00,Wunderground v.1.15,2013-08-06 17:42:00,
2013-08-06 13:47:00,78.1,47.4,30.11,ENE,61,3.0,3.0,34,0.00,,,0.00,Wunderground v.1.15,2013-08-06 17:47:00,
2013-08-06 13:52:00,76.7,47.7,30.12,West,276,0.0,2.0,36,0.00,,,0.00,Wunderground v.1.15,2013-08-06 17:52:00,
2013-08-06 13:57:00,76.3,47.4,30.12,NE,41,0.0,2.0,36,0.00,,,0.00,Wunderground v.1.15,2013-08-06 17:57:00,
2013-08-06 14:02:00,76.4,48.9,30.11,SW,214,0.0,2.0,38,0.00,,,0.00,Wunderground v.1.15,2013-08-06 18:02:00,
2013-08-06 14:07:00,76.8,48.6,30.12,NNE,12,0.0,2.0,37,0.00,,,0.00,Wunderground v.1.15,2013-08-06 18:07:00,
2013-08-06 14:12:00,77.3,47.5,30.12,SW,224,1.0,3.0,35,0.00,,,0.00,Wunderground v.1.15,2013-08-06 18:12:00,
2013-08-06 14:17:00,78.2,49.8,30.12,WSW,240,2.0,3.0,37,0.00,,,0.00,Wunderground v.1.15,2013-08-06 18:17:00,
2013-08-06 14:22:00,78.3,48.4,30.11,WNW,293,0.0,2.0,35,0.00,,,0.00,Wunderground v.1.15,2013-08-06 18:22:00,
2013-08-06 14:27:00,78.7,48.7,30.11,WNW,298,0.0,2.0,35,0.00,,,0.00,Wunderground v.1.15,2013-08-06 18:27:00,
2013-08-06 14:32:00,78.7,48.7,30.11,WSW,237,0.0,0.0,35,0.00,,,0.00,Wunderground v.1.15,2013-08-06 18:32:00,
2013-08-06 14:37:00,78.8,50.3,30.11,North,1,0.0,1.0,37,0.00,,,0.00,Wunderground v.1.15,2013-08-06 18:37:00,
2013-08-06 14:42:00,79.0,51.2,30.11,WSW,238,1.0,3.0,38,0.00,,,0.00,Wunderground v.1.15,2013-08-06 18:42:00,
2013-08-06 14:48:00,80.0,47.5,30.11,SE,136,1.0,3.0,32,0.00,,,0.00,Wunderground v.1.15,2013-08-06 18:48:00,
2013-08-06 14:53:00,80.5,47.9,30.11,SW,215,0.0,2.0,32,0.00,,,0.00,Wunderground v.1.15,2013-08-06 18:53:00,
2013-08-06 14:58:00,80.0,48.3,30.11,WNW,283,1.0,3.0,33,0.00,,,0.00,Wunderground v.1.15,2013-08-06 18:58:00,
2013-08-06 15:03:00,78.6,47.1,30.10,West,264,0.0,2.0,33,0.00,,,0.00,Wunderground v.1.15,2013-08-06 19:03:00,
2013-08-06 15:08:00,78.3,46.8,30.11,South,177,0.0,3.0,33,0.00,,,0.00,Wunderground v.1.15,2013-08-06 19:08:00,
2013-08-06 15:13:00,79.3,47.7,30.11,West,273,0.0,1.0,33,0.00,,,0.00,Wunderground v.1.15,2013-08-06 19:13:00,
2013-08-06 15:18:00,79.1,50.6,30.11,WNW,290,0.0,1.0,37,0.00,,,0.00,Wunderground v.1.15,2013-08-06 19:18:00,
2013-08-06 15:23:00,79.0,51.2,30.11,West,263,0.0,1.0,38,0.00,,,0.00,Wunderground v.1.15,2013-08-06 19:23:00,
2013-08-06 15:28:00,78.4,50.7,30.11,West,263,0.0,1.0,38,0.00,,,0.00,Wunderground v.1.15,2013-08-06 19:28:00,
2013-08-06 15:33:00,78.5,50.1,30.11,West,262,0.0,0.0,37,0.00,,,0.00,Wunderground v.1.15,2013-08-06 19:33:00,
2013-08-06 15:38:00,78.9,46.5,30.11,SSW,211,0.0,1.0,32,0.00,,,0.00,Wunderground v.1.15,2013-08-06 19:38:00,
2013-08-06 15:43:00,78.7,51.0,30.11,WSW,250,0.0,1.0,38,0.00,,,0.00,Wunderground v.1.15,2013-08-06 19:43:00,
2013-08-06 15:48:00,78.3,50.6,30.11,WSW,250,0.0,1.0,38,0.00,,,0.00,Wunderground v.1.15,2013-08-06 19:48:00,
2013-08-06 15:53:00,78.1,50.4,30.11,North,11,0.0,1.0,38,0.00,,,0.00,Wunderground v.1.15,2013-08-06 19:53:00,
2013-08-06 15:58:00,77.7,50.1,30.11,WSW,248,0.0,1.0,38,0.00,,,0.00,Wunderground v.1.15,2013-08-06 19:58:00,
2013-08-06 16:04:00,76.7,49.9,30.11,North,360,0.0,1.0,39,0.00,,,0.00,Wunderground v.1.15,2013-08-06 20:04:00,
2013-08-06 16:09:00,76.4,51.0,30.11,NNE,12,0.0,0.0,41,0.00,,,0.00,Wunderground v.1.15,2013-08-06 20:09:00,
2013-08-06 16:14:00,76.3,51.5,30.11,NNE,12,0.0,0.0,42,0.00,,,0.00,Wunderground v.1.15,2013-08-06 20:14:00,
2013-08-06 16:19:00,76.6,51.8,30.11,NNE,12,0.0,0.0,42,0.00,,,0.00,Wunderground v.1.15,2013-08-06 20:19:00,
2013-08-06 16:24:00,76.9,49.4,30.11,NE,53,0.0,1.0,38,0.00,,,0.00,Wunderground v.1.15,2013-08-06 20:24:00,
2013-08-06 16:29:00,76.5,47.6,30.11,NE,53,0.0,0.0,36,0.00,,,0.00,Wunderground v.1.15,2013-08-06 20:29:00,
2013-08-06 16:32:00,76.1,48.6,30.11,West,259,0.0,2.0,38,0.00,,,0.00,Wunderground v.1.15,2013-08-06 20:32:00,
2013-08-06 16:37:00,75.6,50.2,30.11,West,280,0.0,2.0,41,0.00,,,0.00,Wunderground v.1.15,2013-08-06 20:37:00,
2013-08-06 16:42:00,75.1,50.4,30.11,West,280,0.0,0.0,42,0.00,,,0.00,Wunderground v.1.15,2013-08-06 20:42:00,
2013-08-06 16:47:00,74.8,51.4,30.11,WNW,285,0.0,1.0,44,0.00,,,0.00,Wunderground v.1.15,2013-08-06 20:47:00,
2013-08-06 16:52:00,74.3,52.2,30.11,NE,39,0.0,1.0,46,0.00,,,0.00,Wunderground v.1.15,2013-08-06 20:52:00,
2013-08-06 16:57:00,73.8,51.1,30.11,NE,56,0.0,4.0,45,0.00,,,0.00,Wunderground v.1.15,2013-08-06 20:57:00,
2013-08-06 17:02:00,73.4,51.9,30.11,NE,56,0.0,0.0,47,0.00,,,0.00,Wunderground v.1.15,2013-08-06 21:02:00,
2013-08-06 17:07:00,73.1,51.1,30.11,ENE,57,0.0,0.0,46,0.00,,,0.00,Wunderground v.1.15,2013-08-06 21:07:00,
2013-08-06 17:12:00,73.0,51.0,30.11,ENE,58,0.0,1.0,46,0.00,,,0.00,Wunderground v.1.15,2013-08-06 21:12:00,
2013-08-06 17:17:00,73.4,51.4,30.11,ENE,67,0.0,1.0,46,0.00,,,0.00,Wunderground v.1.15,2013-08-06 21:17:00,
2013-08-06 17:22:00,73.8,51.7,30.11,ENE,67,0.0,0.0,46,0.00,,,0.00,Wunderground v.1.15,2013-08-06 21:22:00,
2013-08-06 17:27:00,74.0,51.9,30.11,ENE,66,0.0,0.0,46,0.00,,,0.00,Wunderground v.1.15,2013-08-06 21:27:00,
2013-08-06 17:32:00,74.0,51.9,30.11,ENE,64,1.0,1.0,46,0.00,,,0.00,Wunderground v.1.15,2013-08-06 21:32:00,
2013-08-06 17:37:00,74.0,50.7,30.11,East,81,0.0,3.0,44,0.00,,,0.00,Wunderground v.1.15,2013-08-06 21:37:00,
2013-08-06 17:43:00,74.1,50.8,30.11,East,80,0.0,1.0,44,0.00,,,0.00,Wunderground v.1.15,2013-08-06 21:43:00,
2013-08-06 17:48:00,74.0,50.1,30.11,ENE,75,0.0,1.0,43,0.00,,,0.00,Wunderground v.1.15,2013-08-06 21:48:00,
2013-08-06 17:54:00,73.7,49.8,30.11,East,79,0.0,2.0,43,0.00,,,0.00,Wunderground v.1.15,2013-08-06 21:54:00,
2013-08-06 17:59:00,73.3,49.4,30.11,ENE,68,0.0,0.0,43,0.00,,,0.00,Wunderground v.1.15,2013-08-06 21:59:00,
2013-08-06 18:04:00,73.2,50.6,30.11,ENE,59,0.0,1.0,45,0.00,,,0.00,Wunderground v.1.15,2013-08-06 22:04:00,
2013-08-06 18:09:00,73.0,49.8,30.11,ENE,59,0.0,0.0,44,0.00,,,0.00,Wunderground v.1.15,2013-08-06 22:09:00,
2013-08-06 18:14:00,72.6,49.4,30.11,ENE,71,0.0,2.0,44,0.00,,,0.00,Wunderground v.1.15,2013-08-06 22:14:00,
2013-08-06 18:19:00,72.2,49.1,30.11,ENE,71,0.0,0.0,44,0.00,,,0.00,Wunderground v.1.15,2013-08-06 22:19:00,
2013-08-06 18:24:00,72.0,48.9,30.11,ENE,77,0.0,3.0,44,0.00,,,0.00,Wunderground v.1.15,2013-08-06 22:24:00,
2013-08-06 18:29:00,71.7,49.2,30.11,ENE,64,0.0,0.0,45,0.00,,,0.00,Wunderground v.1.15,2013-08-06 22:29:00,
2013-08-06 18:34:00,71.5,49.6,30.11,ENE,70,0.0,1.0,46,0.00,,,0.00,Wunderground v.1.15,2013-08-06 22:34:00,
2013-08-06 18:39:00,71.3,48.9,30.11,ENE,71,0.0,0.0,45,0.00,,,0.00,Wunderground v.1.15,2013-08-06 22:39:00,
2013-08-06 18:44:00,71.2,49.9,30.11,ENE,70,0.0,1.0,47,0.00,,,0.00,Wunderground v.1.15,2013-08-06 22:44:00,
2013-08-06 18:49:00,71.0,49.7,30.12,ENE,69,0.0,0.0,47,0.00,,,0.00,Wunderground v.1.15,2013-08-06 22:49:00,
2013-08-06 18:54:00,70.8,50.1,30.12,ENE,70,0.0,0.0,48,0.00,,,0.00,Wunderground v.1.15,2013-08-06 22:54:00,
2013-08-06 19:00:00,70.6,50.0,30.12,ENE,70,0.0,0.0,48,0.00,,,0.00,Wunderground v.1.15,2013-08-06 23:00:00,
2013-08-06 19:05:00,70.3,50.2,30.12,ENE,70,0.0,0.0,49,0.00,,,0.00,Wunderground v.1.15,2013-08-06 23:05:00,
2013-08-06 19:10:00,70.0,50.5,30.12,ENE,70,0.0,0.0,50,0.00,,,0.00,Wunderground v.1.15,2013-08-06 23:10:00,
2013-08-06 19:15:00,69.8,50.3,30.12,ENE,70,0.0,0.0,50,0.00,,,0.00,Wunderground v.1.15,2013-08-06 23:15:00,
2013-08-06 19:20:00,69.6,50.7,30.12,ENE,69,0.0,1.0,51,0.00,,,0.00,Wunderground v.1.15,2013-08-06 23:20:00,
2013-08-06 19:25:00,69.3,50.9,30.12,ENE,70,0.0,1.0,52,0.00,,,0.00,Wunderground v.1.15,2013-08-06 23:25:00,
2013-08-06 19:30:00,68.9,50.5,30.12,ENE,70,0.0,0.0,52,0.00,,,0.00,Wunderground v.1.15,2013-08-06 23:30:00,
2013-08-06 19:35:00,68.6,50.3,30.12,ENE,69,0.0,1.0,52,0.00,,,0.00,Wunderground v.1.15,2013-08-06 23:35:00,
2013-08-06 19:40:00,68.3,50.0,30.13,ENE,70,0.0,0.0,52,0.00,,,0.00,Wunderground v.1.15,2013-08-06 23:40:00,
2013-08-06 19:45:00,68.1,50.3,30.13,ENE,69,0.0,0.0,53,0.00,,,0.00,Wunderground v.1.15,2013-08-06 23:45:00,
2013-08-06 19:51:00,67.8,51.0,30.13,ENE,70,0.0,0.0,55,0.00,,,0.00,Wunderground v.1.15,2013-08-06 23:51:00,
2013-08-06 19:56:00,67.4,51.2,30.13,ENE,71,0.0,0.0,56,0.00,,,0.00,Wunderground v.1.15,2013-08-06 23:56:00,
2013-08-06 20:01:00,66.9,51.6,30.13,ENE,71,0.0,0.0,58,0.00,,,0.00,Wunderground v.1.15,2013-08-07 00:01:00,
2013-08-06 20:06:00,66.6,51.8,30.13,ENE,70,0.0,1.0,59,0.00,,,0.00,Wunderground v.1.15,2013-08-07 00:06:00,
2013-08-06 20:11:00,66.1,51.8,30.13,ENE,70,0.0,1.0,60,0.00,,,0.00,Wunderground v.1.15,2013-08-07 00:11:00,
2013-08-06 20:16:00,65.8,51.5,30.13,ENE,70,0.0,1.0,60,0.00,,,0.00,Wunderground v.1.15,2013-08-07 00:16:00,
2013-08-06 20:21:00,65.4,51.1,30.13,ENE,78,1.0,1.0,60,0.00,,,0.00,Wunderground v.1.15,2013-08-07 00:21:00,
2013-08-06 20:26:00,65.2,51.4,30.13,ENE,78,0.0,1.0,61,0.00,,,0.00,Wunderground v.1.15,2013-08-07 00:26:00,
2013-08-06 20:31:00,65.0,51.7,30.13,ENE,78,0.0,1.0,62,0.00,,,0.00,Wunderground v.1.15,2013-08-07 00:31:00,
2013-08-06 20:36:00,64.7,50.9,30.14,ENE,78,0.0,1.0,61,0.00,,,0.00,Wunderground v.1.15,2013-08-07 00:36:00,
2013-08-06 20:41:00,64.7,51.4,30.14,ENE,78,0.0,0.0,62,0.00,,,0.00,Wunderground v.1.15,2013-08-07 00:41:00,
2013-08-06 20:46:00,64.5,51.6,30.14,ENE,78,0.0,0.0,63,0.00,,,0.00,Wunderground v.1.15,2013-08-07 00:46:00,
2013-08-06 20:51:00,64.2,51.8,30.14,ENE,78,0.0,0.0,64,0.00,,,0.00,Wunderground v.1.15,2013-08-07 00:51:00,
2013-08-06 20:56:00,64.0,52.0,30.14,ENE,78,0.0,1.0,65,0.00,,,0.00,Wunderground v.1.15,2013-08-07 00:56:00,
2013-08-06 21:01:00,63.7,52.1,30.14,ENE,78,0.0,0.0,66,0.00,,,0.00,Wunderground v.1.15,2013-08-07 01:01:00,
2013-08-06 21:06:00,63.5,52.3,30.14,ENE,77,0.0,1.0,67,0.00,,,0.00,Wunderground v.1.15,2013-08-07 01:06:00,
2013-08-06 21:11:00,63.2,52.5,30.14,ENE,78,0.0,1.0,68,0.00,,,0.00,Wunderground v.1.15,2013-08-07 01:11:00,
2013-08-06 21:16:00,63.1,52.8,30.14,ENE,78,0.0,1.0,69,0.00,,,0.00,Wunderground v.1.15,2013-08-07 01:16:00,
2013-08-06 21:21:00,62.8,52.5,30.14,ENE,78,0.0,1.0,69,0.00,,,0.00,Wunderground v.1.15,2013-08-07 01:21:00,
2013-08-06 21:26:00,62.6,52.7,30.14,ENE,78,0.0,1.0,70,0.00,,,0.00,Wunderground v.1.15,2013-08-07 01:26:00,
2013-08-06 21:31:00,62.3,52.4,30.14,ENE,78,0.0,0.0,70,0.00,,,0.00,Wunderground v.1.15,2013-08-07 01:31:00,
2013-08-06 21:36:00,62.2,52.3,30.14,ENE,78,1.0,1.0,70,0.00,,,0.00,Wunderground v.1.15,2013-08-07 01:36:00,
2013-08-06 21:41:00,62.0,52.5,30.14,ENE,77,0.0,0.0,71,0.00,,,0.00,Wunderground v.1.15,2013-08-07 01:41:00,
2013-08-06 21:46:00,61.8,52.3,30.14,ENE,78,0.0,0.0,71,0.00,,,0.00,Wunderground v.1.15,2013-08-07 01:46:00,
2013-08-06 21:51:00,61.6,52.5,30.14,ENE,78,0.0,0.0,72,0.00,,,0.00,Wunderground v.1.15,2013-08-07 01:51:00,
2013-08-06 21:56:00,61.5,52.4,30.14,ENE,78,0.0,0.0,72,0.00,,,0.00,Wunderground v.1.15,2013-08-07 01:56:00,
2013-08-06 22:01:00,61.4,51.9,30.14,ENE,78,0.0,0.0,71,0.00,,,0.00,Wunderground v.1.15,2013-08-07 02:01:00,
2013-08-06 22:06:00,61.4,51.9,30.14,ENE,78,0.0,0.0,71,0.00,,,0.00,Wunderground v.1.15,2013-08-07 02:06:00,
2013-08-06 22:11:00,61.2,52.1,30.14,ENE,78,0.0,0.0,72,0.00,,,0.00,Wunderground v.1.15,2013-08-07 02:11:00,
2013-08-06 22:16:00,61.0,51.9,30.14,ENE,78,0.0,0.0,72,0.00,,,0.00,Wunderground v.1.15,2013-08-07 02:16:00,
2013-08-06 22:21:00,60.9,52.2,30.14,ENE,77,0.0,0.0,73,0.00,,,0.00,Wunderground v.1.15,2013-08-07 02:21:00,
2013-08-06 22:26:00,60.6,51.9,30.13,ENE,78,0.0,0.0,73,0.00,,,0.00,Wunderground v.1.15,2013-08-07 02:26:00,
2013-08-06 22:31:00,60.4,51.7,30.13,ENE,78,0.0,0.0,73,0.00,,,0.00,Wunderground v.1.15,2013-08-07 02:31:00,
2013-08-06 22:36:00,60.3,52.3,30.13,ENE,78,0.0,0.0,75,0.00,,,0.00,Wunderground v.1.15,2013-08-07 02:36:00,
2013-08-06 22:41:00,60.1,52.1,30.13,ENE,78,0.0,0.0,75,0.00,,,0.00,Wunderground v.1.15,2013-08-07 02:41:00,
2013-08-06 22:46:00,60.0,52.8,30.13,ENE,78,0.0,0.0,77,0.00,,,0.00,Wunderground v.1.15,2013-08-07 02:46:00,
2013-08-06 22:51:00,59.7,52.5,30.13,ENE,77,0.0,0.0,77,0.00,,,0.00,Wunderground v.1.15,2013-08-07 02:51:00,
2013-08-06 22:56:00,59.5,52.3,30.14,ENE,78,0.0,0.0,77,0.00,,,0.00,Wunderground v.1.15,2013-08-07 02:56:00,
2013-08-06 23:01:00,59.3,52.1,30.14,ENE,78,0.0,0.0,77,0.00,,,0.00,Wunderground v.1.15,2013-08-07 03:01:00,
2013-08-06 23:06:00,59.2,52.0,30.14,ENE,78,0.0,0.0,77,0.00,,,0.00,Wunderground v.1.15,2013-08-07 03:06:00,
2013-08-06 23:11:00,59.1,51.9,30.14,ESE,112,0.0,1.0,77,0.00,,,0.00,Wunderground v.1.15,2013-08-07 03:11:00,
2013-08-06 23:16:00,59.2,52.0,30.14,SE,146,0.0,1.0,77,0.00,,,0.00,Wunderground v.1.15,2013-08-07 03:16:00,
2013-08-06 23:21:00,59.2,52.0,30.14,SSE,148,0.0,0.0,77,0.00,,,0.00,Wunderground v.1.15,2013-08-07 03:21:00,
2013-08-06 23:26:00,59.3,52.1,30.14,SE,146,0.0,0.0,77,0.00,,,0.00,Wunderground v.1.15,2013-08-07 03:26:00,
2013-08-06 23:31:00,59.4,52.2,30.14,SW,232,0.0,0.0,77,0.00,,,0.00,Wunderground v.1.15,2013-08-07 03:31:00,
2013-08-06 23:36:00,59.4,52.5,30.14,SW,232,0.0,0.0,78,0.00,,,0.00,Wunderground v.1.15,2013-08-07 03:36:00,
2013-08-06 23:41:00,59.2,52.7,30.14,SW,232,0.0,0.0,79,0.00,,,0.00,Wunderground v.1.15,2013-08-07 03:41:00,
2013-08-06 23:46:00,58.9,52.4,30.14,SW,232,0.0,0.0,79,0.00,,,0.00,Wunderground v.1.15,2013-08-07 03:46:00,
2013-08-06 23:51:00,58.7,52.2,30.14,SW,232,0.0,0.0,79,0.00,,,0.00,Wunderground v.1.15,2013-08-07 03:51:00,
2013-08-06 23:57:00,58.4,51.9,30.14,SW,232,0.0,0.0,79,0.00,,,0.00,Wunderground v.1.15,2013-08-07 03:57:00,